User: anonymous   Login
Location: Unspecified
(0.0000°N, 0.0000°E)
Time: 06:49:30
(UTC+00:00)
Language:

OBJECT H - Orbit

View from above orbital plane
View from above orbital plane
View from above satellite
View from above satellite

Ground track
Ground track

The orbit is defined by the following mean orbital elements,

1 66002U          26145.56959625 +.00000000 +00000-0 +42578-4 0 00002
2 66002  50.0064 256.7109 0000944 153.3625 206.7296 13.29325359    07
Epoch (UTC): 25 May 2026 13:40:13
Eccentricity: 0.0000944
inclination: 50.0064°
perigee height: 1149 km
apogee height: 1150 km
right ascension of ascending node: 256.7109°
argument of perigee: 153.3625°
revolutions per day: 13.29325359
mean anomaly at epoch: 206.7296°

The dashed part of the orbit path shows where the satellite is in the earth's shadow,  

DLR